Location: Eaton
(41.3139°N, 82.0207°W)
Time: 16:51:30
(UTC+00:00)

Cosmos 1464 Rocket - Pass Details

Date: 17 June 2021
Orbit: 953 x 1001 km, 82.9° (Epoch: 02 August)

Event Time Altitude Azimuth Distance (km) Brightness Sun altitude
Rises 05:25:11 0° 347° (NNW) 3,718 8.3 -25.3°
Reaches altitude 10° 05:27:46 10° 343° (NNW) 2,770 7.3 -25.3°
Maximum altitude 05:33:53 51° 269° (W) 1,238 4.4 -25.3°
Enters shadow 05:35:14 44° 232° (SW) 1,355 4.4 -25.3°
